GW5240 Weather Reports


Display with metric or nautical units.
time (UTC)temp
F
wind
direction
speed
MPH
gust
MPH
rain 1hr
in
rain 24hr
in
rain mn
in
humidity
%
barometer
mb
20260905171415 77 2 2.0 3.0 0.00 0.00 0.00 78 1018.3
20260905170911 77 194 1.0 2.0 0.00 0.00 0.00 79 1018.4
20260905170407 77 152 4.0 7.0 0.00 0.00 0.00 79 1018.4
20260905165901 76 171 1.0 2.0 0.00 0.00 0.00 81 1018.2
20260905165356 77 177 0.0 0.0 0.00 0.00 0.00 80 1018.4
20260905164856 77 152 0.0 0.0 0.00 0.00 0.00 80 1018.4
20260905164351 76 176 0.0 2.0 0.00 0.00 0.00 81 1018.4
20260905163846 76 72 2.0 2.0 0.00 0.00 0.00 82 1018.4
20260905163342 75 149 0.0 0.0 0.00 0.00 0.00 82 1018.6
20260905162838 75 154 2.0 3.0 0.00 0.00 0.00 82 1018.4
20260905162337 75 169 0.0 0.0 0.00 0.00 0.00 82 1018.6
20260905161832 75 154 0.0 0.0 0.00 0.00 0.00 83 1018.3
20260905161332 75 156 0.0 2.0 0.00 0.00 0.00 82 1018.5
20260905160830 75 212 1.0 2.0 0.00 0.00 0.00 83 1018.3
20260905160325 75 68 0.0 0.0 0.00 0.00 0.00 83 1018.3
20260905155820 75 85 1.0 2.0 0.00 0.00 0.00 83 1018.4
20260905155319 74 81 2.0 3.0 0.00 0.00 0.00 85 1018.2
20260905154819 74 207 2.0 3.0 0.00 0.00 0.00 86 1018.3
20260905154314 73 169 0.0 0.0 0.00 0.00 0.00 86 1018.5
20260905153809 73 138 0.0 2.0 0.00 0.00 0.00 86 1018.3
20260905153306 73 130 0.0 0.0 0.00 0.00 0.00 87 1018.3
20260905152800 72 167 0.0 0.0 0.00 0.00 0.00 88 1018.4
20260905152259 72 263 1.0 2.0 0.00 0.00 0.00 88 1018.2
20260905151754 72 223 2.0 2.0 0.00 0.00 0.00 88 1018.1
20260905151250 72 177 0.0 2.0 0.00 0.00 0.00 88 1017.9
20260905150749 72 147 0.0 2.0 0.00 0.00 0.00 89 1017.9
20260905150249 72 152 0.0 0.0 0.00 0.00 0.00 89 1017.5
20260905145747 71 157 0.0 0.0 0.00 0.00 0.00 89 1017.7
20260905145241 71 147 0.0 2.0 0.00 0.00 0.00 90 1017.7
20260905144740 71 145 0.0 0.0 0.00 0.00 0.00 91 1017.8
20260905144236 71 161 0.0 0.0 0.00 0.00 0.00 91 1017.9
20260905143735 71 129 2.0 3.0 0.00 0.00 0.00 91 1017.7
20260905143235 71 310 2.0 3.0 0.00 0.00 0.00 92 1017.9
20260905142733 71 124 1.0 2.0 0.00 0.00 0.00 93 1017.9
20260905142228 70 158 0.0 0.0 0.00 0.00 0.00 93 1017.8
20260905141724 70 103 2.0 2.0 0.00 0.00 0.00 94 1017.8
20260905141220 70 136 2.0 3.0 0.00 0.00 0.00 94 1017.8
20260905140715 70 130 2.0 2.0 0.00 0.00 0.00 95 1017.8
20260905140214 69 141 2.0 2.0 0.00 0.00 0.00 95 1017.9
20260905135704 69 144 1.0 2.0 0.00 0.00 0.00 95 1018.1
20260905135159 69 143 1.0 2.0 0.00 0.00 0.00 96 1018.0
20260905134653 69 157 0.0 0.0 0.00 0.00 0.00 96 1017.9
20260905134152 69 158 0.0 0.0 0.00 0.00 0.00 96 1018.0
20260905133647 69 158 0.0 0.0 0.00 0.00 0.00 96 1017.8
20260905133142 69 171 0.0 0.0 0.00 0.00 0.00 96 1017.8
20260905132641 69 171 0.0 0.0 0.00 0.00 0.00 96 1017.9
20260905132137 69 160 0.0 0.0 0.00 0.00 0.00 96 1017.5
20260905131632 69 160 0.0 0.0 0.00 0.00 0.00 96 1017.6
20260905131126 69 185 1.0 2.0 0.00 0.00 0.00 96 1017.6
20260905130621 69 174 0.0 0.0 0.00 0.00 0.00 96 1017.4
20260905130120 69 173 0.0 0.0 0.00 0.00 0.00 97 1017.1
20260905125614 69 167 0.0 0.0 0.00 0.00 0.00 97 1016.7
20260905125110 68 153 1.0 2.0 0.00 0.00 0.00 97 1016.3
20260905124607 68 351 2.0 5.0 0.00 0.00 0.00 96 1016.4
20260905124102 68 130 2.0 2.0 0.00 0.00 0.00 96 1016.2
20260905123557 68 154 0.0 0.0 0.00 0.00 0.00 96 1016.1
20260905123054 68 163 0.0 0.0 0.00 0.00 0.00 96 1015.9
20260905122548 68 160 0.0 2.0 0.00 0.00 0.00 96 1016.3
20260905122043 68 157 0.0 0.0 0.00 0.00 0.00 96 1016.3
20260905121538 68 153 0.0 2.0 0.00 0.00 0.00 96 1016.4
20260905121033 68 167 0.0 0.0 0.00 0.00 0.00 96 1016.3
20260905120532 68 72 2.0 2.0 0.00 0.00 0.00 96 1016.6
20260905120028 68 157 0.0 0.0 0.00 0.00 0.00 96 1016.6
20260905115526 68 172 0.0 0.0 0.00 0.00 0.00 96 1016.6
20260905115021 68 237 1.0 2.0 0.00 0.00 0.00 96 1016.6
20260905114520 68 154 0.0 0.0 0.00 0.00 0.00 96 1016.4
20260905114020 68 147 0.0 2.0 0.00 0.00 0.00 95 1016.2
20260905113515 68 155 0.0 2.0 0.00 0.00 0.00 95 1016.3
20260905113010 68 155 0.0 0.0 0.00 0.00 0.00 95 1016.2
20260905112505 68 152 0.0 0.0 0.00 0.00 0.00 95 1016.1
20260905112000 68 150 0.0 2.0 0.00 0.00 0.00 95 1015.9
20260905111455 68 157 0.0 2.0 0.00 0.00 0.00 95 1016.1
20260905110949 68 115 0.0 2.0 0.00 0.00 0.00 95 1016.1
20260905110448 68 147 0.0 0.0 0.00 0.00 0.00 95 1016.2
20260905105948 68 174 0.0 0.0 0.00 0.00 0.00 95 1016.2
20260905105443 68 173 0.0 0.0 0.00 0.00 0.00 95 1016.1
20260905104942 68 163 0.0 0.0 0.00 0.00 0.00 95 1016.1
20260905104438 68 155 0.0 0.0 0.00 0.00 0.00 95 1016.2
20260905103933 68 158 0.0 0.0 0.00 0.00 0.00 94 1016.0
20260905103429 68 170 2.0 3.0 0.00 0.00 0.00 94 1016.0
20260905102925 68 166 0.0 2.0 0.00 0.00 0.00 94 1015.9
20260905102421 68 164 0.0 0.0 0.00 0.00 0.00 94 1015.8
20260905101915 68 178 0.0 0.0 0.00 0.00 0.00 94 1015.9
20260905101408 68 150 0.0 2.0 0.00 0.00 0.00 94 1015.9
20260905100903 68 180 0.0 0.0 0.00 0.00 0.00 94 1016.2
20260905100359 68 151 0.0 0.0 0.00 0.00 0.00 94 1016.2
20260905095858 68 11 2.0 3.0 0.00 0.00 0.00 94 1015.5
20260905095352 68 168 0.0 0.0 0.00 0.00 0.00 94 1015.5
20260905094847 68 156 0.0 0.0 0.00 0.00 0.00 94 1015.5
20260905094343 68 166 2.0 2.0 0.00 0.00 0.00 94 1015.1
20260905093841 68 34 2.0 3.0 0.00 0.00 0.00 94 1015.3
20260905093337 68 209 2.0 3.0 0.00 0.00 0.00 94 1015.2
20260905092833 68 147 3.0 5.0 0.00 0.00 0.00 93 1015.1
20260905092332 68 153 0.0 0.0 0.00 0.00 0.00 93 1015.3
20260905091828 68 144 0.0 0.0 0.00 0.00 0.00 93 1015.3
20260905091327 68 138 1.0 2.0 0.00 0.00 0.00 93 1015.4
20260905090826 68 166 1.0 2.0 0.00 0.00 0.00 93 1015.4
20260905090322 68 119 2.0 3.0 0.00 0.00 0.00 92 1015.7
20260905085821 68 126 2.0 2.0 0.00 0.00 0.00 92 1015.7
20260905085316 68 176 2.0 2.0 0.00 0.00 0.00 92 1015.8
20260905084812 68 160 0.0 2.0 0.00 0.00 0.00 92 1015.7
20260905084311 68 110 3.0 3.0 0.00 0.00 0.00 92 1015.8
20260905083806 68 47 4.0 5.0 0.00 0.00 0.00 92 1015.7
20260905083302 68 161 1.0 2.0 0.00 0.00 0.00 92 1015.7
20260905082758 68 157 0.0 0.0 0.00 0.00 0.00 92 1015.9
20260905082254 68 159 0.0 0.0 0.00 0.00 0.00 92 1015.6
20260905081753 68 173 2.0 3.0 0.00 0.00 0.00 92 1015.6
20260905081249 68 136 2.0 2.0 0.00 0.00 0.00 92 1015.8
20260905080742 68 115 2.0 2.0 0.00 0.00 0.00 92 1015.8
20260905080242 68 74 4.0 5.0 0.00 0.00 0.00 92 1015.9
20260905075741 68 106 1.0 2.0 0.00 0.00 0.00 92 1015.9
20260905075240 68 107 3.0 3.0 0.00 0.00 0.00 92 1015.8
20260905074739 68 139 0.0 0.0 0.00 0.00 0.00 92 1015.9
20260905074236 68 135 0.0 0.0 0.00 0.00 0.00 93 1015.9
20260905073731 68 164 0.0 0.0 0.00 0.00 0.00 93 1015.8
20260905073226 68 163 0.0 0.0 0.00 0.00 0.00 92 1016.0
20260905072725 68 170 1.0 2.0 0.00 0.00 0.00 92 1015.9
20260905072221 68 124 2.0 3.0 0.00 0.00 0.00 92 1016.0
20260905071718 68 135 1.0 2.0 0.00 0.00 0.00 92 1015.9
20260905071214 68 158 2.0 3.0 0.00 0.00 0.00 92 1015.8
20260905070708 68 155 1.0 2.0 0.00 0.00 0.00 92 1016.2
20260905070204 68 146 0.0 0.0 0.00 0.00 0.00 91 1016.0
20260905065703 68 179 2.0 2.0 0.00 0.00 0.00 91 1015.8
20260905065157 68 5 0.0 2.0 0.00 0.00 0.00 91 1015.9
20260905064652 67 282 3.0 3.0 0.00 0.00 0.00 92 1015.9
20260905064148 67 159 0.0 2.0 0.00 0.00 0.00 91 1016.0
20260905063646 67 130 1.0 2.0 0.00 0.00 0.00 91 1016.0
20260905063143 68 164 1.0 2.0 0.00 0.00 0.00 91 1016.0
20260905062638 68 157 0.0 0.0 0.00 0.00 0.00 91 1015.9
20260905062137 68 147 0.0 0.0 0.00 0.00 0.00 91 1015.9
20260905061632 68 158 1.0 2.0 0.00 0.00 0.00 91 1016.0
20260905061132 68 73 1.0 2.0 0.00 0.00 0.00 91 1015.8
20260905060627 68 115 0.0 0.0 0.00 0.00 0.00 90 1015.7
20260905060124 68 168 0.0 0.0 0.00 0.00 0.00 90 1016.0
20260905055622 68 122 1.0 2.0 0.00 0.00 0.00 90 1015.9
20260905055117 68 167 2.0 3.0 0.00 0.00 0.00 89 1015.7
20260905054613 69 172 0.0 2.0 0.00 0.00 0.00 89 1015.5
20260905054108 69 72 1.0 2.0 0.00 0.00 0.00 88 1015.7
20260905053603 69 113 0.0 2.0 0.00 0.00 0.00 88 1015.7
20260905053058 69 121 0.0 0.0 0.00 0.00 0.00 88 1015.7
20260905052557 69 154 0.0 0.0 0.00 0.00 0.00 87 1015.6
20260905052052 69 112 1.0 3.0 0.00 0.00 0.00 87 1015.6
20260905051548 70 268 1.0 2.0 0.00 0.00 0.00 87 1015.5
20260905051044 70 216 1.0 2.0 0.00 0.00 0.00 86 1015.3
20260905050539 70 152 0.0 2.0 0.00 0.00 0.00 86 1015.2
20260905050037 70 130 1.0 2.0 0.00 0.00 0.00 86 1015.3
20260905045531 70 161 0.0 2.0 0.00 0.00 0.00 86 1015.3
20260905045026 70 237 0.0 0.0 0.00 0.00 0.00 85 1015.2
20260905044527 71 162 2.0 2.0 0.00 0.00 0.00 85 1015.5
20260905044026 71 166 0.0 2.0 0.00 0.00 0.00 85 1015.4
20260905043526 71 59 2.0 3.0 0.00 0.00 0.00 85 1015.2
20260905043021 71 169 2.0 2.0 0.00 0.00 0.00 84 1015.3
20260905042520 71 93 1.0 2.0 0.00 0.00 0.00 84 1015.6
20260905042015 71 156 0.0 2.0 0.00 0.00 0.00 84 1015.5
20260905041511 71 164 0.0 2.0 0.00 0.00 0.00 84 1015.6
20260905041006 72 63 1.0 2.0 0.00 0.00 0.00 83 1015.5
20260905040505 72 148 0.0 0.0 0.00 0.00 0.00 83 1015.3
20260905040004 72 144 0.0 0.0 0.00 0.00 0.00 82 1015.4
20260905035500 72 134 2.0 2.0 0.00 0.00 0.00 82 1015.6
20260905034957 72 75 2.0 3.0 0.00 0.00 0.00 82 1015.4
20260905034457 73 140 1.0 2.0 0.00 0.00 0.00 81 1015.4
20260905033956 73 143 1.0 2.0 0.00 0.00 0.00 81 1015.1
20260905033451 73 48 2.0 5.0 0.00 0.00 0.00 81 1015.4
20260905032946 73 130 2.0 2.0 0.00 0.00 0.00 80 1015.3
20260905032441 73 96 2.0 5.0 0.00 0.00 0.00 80 1015.3
20260905031936 74 98 2.0 2.0 0.00 0.00 0.00 80 1015.2
20260905031432 74 123 2.0 2.0 0.00 0.00 0.00 79 1015.2
20260905030927 74 155 2.0 2.0 0.00 0.00 0.00 79 1015.1
20260905030422 74 64 2.0 2.0 0.00 0.00 0.00 78 1015.1
20260905025921 75 209 2.0 2.0 0.00 0.00 0.00 78 1015.0
20260905025416 75 155 2.0 2.0 0.00 0.00 0.00 78 1015.1
20260905024913 75 323 5.0 9.0 0.00 0.00 0.00 77 1015.0
20260905024408 75 181 3.0 3.0 0.00 0.00 0.00 77 1014.8
20260905023904 75 301 3.0 5.0 0.00 0.00 0.00 76 1014.9
20260905023359 76 108 2.0 2.0 0.00 0.00 0.00 76 1014.8
20260905022857 76 153 1.0 2.0 0.00 0.00 0.00 75 1014.7
20260905022354 77 32 3.0 3.0 0.00 0.00 0.00 75 1014.7
20260905021853 77 102 2.0 2.0 0.00 0.00 0.00 74 1014.6
20260905021348 77 130 2.0 2.0 0.00 0.00 0.00 74 1014.4
20260905020843 78 357 6.0 9.0 0.00 0.00 0.00 74 1014.5
20260905020333 78 312 4.0 5.0 0.00 0.00 0.00 73 1014.5
20260905015832 78 97 2.0 3.0 0.00 0.00 0.00 73 1014.4
20260905015331 79 121 0.0 2.0 0.00 0.00 0.00 73 1014.7
20260905014830 79 107 1.0 2.0 0.00 0.00 0.00 73 1014.2
20260905014326 79 99 2.0 2.0 0.00 0.00 0.00 73 1014.1
20260905013821 79 166 0.0 0.0 0.00 0.00 0.00 74 1014.2
20260905013312 79 109 0.0 2.0 0.00 0.00 0.00 74 1014.1
20260905012807 79 159 0.0 0.0 0.00 0.00 0.00 73 1014.1
20260905012306 79 163 0.0 0.0 0.00 0.00 0.00 73 1014.0
20260905011759 80 158 0.0 0.0 0.00 0.00 0.00 72 1014.0
20260905011254 80 162 0.0 2.0 0.00 0.00 0.00 72 1014.0
20260905010749 80 119 0.0 2.0 0.00 0.00 0.00 71 1014.0
20260905010245 80 125 0.0 2.0 0.00 0.00 0.00 71 1013.9
20260905005741 80 145 0.0 2.0 0.00 0.00 0.00 71 1013.9
20260905005236 81 164 0.0 0.0 0.00 0.00 0.00 71 1013.6
20260905004736 81 158 0.0 2.0 0.00 0.00 0.00 70 1013.8
20260905004231 81 103 2.0 3.0 0.00 0.00 0.00 70 1013.6
20260905003731 81 133 1.0 2.0 0.00 0.00 0.00 70 1013.9
20260905003227 82 149 1.0 2.0 0.00 0.00 0.00 69 1013.7
20260905002722 82 169 1.0 2.0 0.00 0.00 0.00 69 1013.6
20260905002222 82 161 0.0 0.0 0.00 0.00 0.00 69 1013.6
20260905001717 82 106 2.0 2.0 0.00 0.00 0.00 68 1013.8
20260905001216 82 130 4.0 5.0 0.00 0.00 0.00 68 1013.7
20260905000712 83 149 0.0 2.0 0.00 0.00 0.00 67 1013.6
20260905000208 83 146 0.0 2.0 0.00 0.00 0.00 67 1013.6
20260904235707 83 136 1.0 2.0 0.00 0.00 0.00 67 1013.6
20260904235202 83 168 2.0 2.0 0.00 0.00 0.00 67 1013.6
20260904234657 83 173 2.0 2.0 0.00 0.00 0.00 66 1013.6
20260904234153 83 158 0.0 0.0 0.00 0.00 0.00 66 1013.4
20260904233648 84 133 2.0 2.0 0.00 0.00 0.00 65 1013.5
20260904233144 84 11 3.0 3.0 0.00 0.00 0.00 65 1013.4
20260904232640 84 138 2.0 3.0 0.00 0.00 0.00 65 1013.4
20260904232136 84 92 1.0 2.0 0.00 0.00 0.00 65 1013.6
20260904231632 84 155 0.0 0.0 0.00 0.00 0.00 65 1013.3
20260904231127 84 165 0.0 2.0 0.00 0.00 0.00 65 1013.3
20260904230626 84 77 1.0 3.0 0.00 0.00 0.00 65 1013.4
20260904230122 85 314 5.0 7.0 0.00 0.00 0.00 65 1013.3
20260904225619 85 148 4.0 5.0 0.00 0.00 0.00 65 1013.2
20260904225114 85 210 2.0 3.0 0.00 0.00 0.00 66 1013.2
20260904224609 85 170 1.0 2.0 0.00 0.00 0.00 65 1013.3
20260904224104 86 325 3.0 5.0 0.00 0.00 0.00 66 1013.3
20260904223603 86 172 0.0 2.0 0.00 0.00 0.00 66 1012.8
20260904223058 86 68 2.0 2.0 0.00 0.00 0.00 65 1013.1
20260904222554 87 283 0.0 0.0 0.00 0.00 0.00 64 1012.9
20260904222049 87 211 1.0 2.0 0.00 0.00 0.00 64 1012.8
20260904221544 87 342 4.0 5.0 0.00 0.00 0.00 63 1012.9
20260904221039 88 236 2.0 3.0 0.00 0.00 0.00 62 1013.1
20260904220538 87 149 0.0 0.0 0.00 0.00 0.00 63 1012.7
20260904220034 88 186 2.0 3.0 0.00 0.00 0.00 62 1012.6
20260904215533 88 252 4.0 5.0 0.00 0.00 0.00 63 1012.6
20260904215030 88 142 4.0 5.0 0.00 0.00 0.00 63 1012.7
20260904214525 88 343 2.0 3.0 0.00 0.00 0.00 63 1012.5
20260904214020 88 327 2.0 3.0 0.00 0.00 0.00 62 1012.5
20260904213518 88 351 3.0 5.0 0.00 0.00 0.00 63 1012.5
20260904213015 88 193 3.0 3.0 0.00 0.00 0.00 63 1012.7
20260904212514 87 80 3.0 3.0 0.00 0.00 0.00 64 1012.6
20260904212009 88 136 0.0 2.0 0.00 0.00 0.00 64 1012.7
20260904211503 88 281 2.0 3.0 0.00 0.00 0.00 64 1012.6
20260904210959 87 338 3.0 3.0 0.00 0.00 0.00 64 1012.8
20260904210458 87 299 3.0 5.0 0.00 0.00 0.00 65 1012.8
20260904205954 87 245 2.0 2.0 0.00 0.00 0.00 65 1012.6
20260904205449 87 19 2.0 3.0 0.00 0.00 0.00 66 1012.8
20260904204947 87 176 1.0 2.0 0.00 0.00 0.00 65 1012.7
20260904204442 88 111 3.0 3.0 0.00 0.00 0.00 64 1012.7
20260904203938 88 357 5.0 7.0 0.00 0.00 0.00 64 1012.6
20260904203434 88 120 2.0 3.0 0.00 0.00 0.00 63 1012.7
20260904202930 87 121 1.0 2.0 0.00 0.00 0.00 66 1012.6
20260904202426 87 319 6.0 7.0 0.00 0.00 0.00 64 1012.6
20260904201922 87 141 2.0 3.0 0.00 0.00 0.00 65 1012.7
20260904201416 87 21 2.0 3.0 0.00 0.00 0.00 65 1012.7
20260904200912 87 85 2.0 3.0 0.00 0.00 0.00 66 1012.6
20260904200410 87 24 4.0 7.0 0.00 0.00 0.00 65 1012.9
20260904195906 86 148 2.0 2.0 0.00 0.00 0.00 67 1012.8
20260904195403 86 2 2.0 3.0 0.00 0.00 0.00 67 1012.9
20260904194858 86 164 2.0 2.0 0.00 0.00 0.00 67 1012.9
20260904194358 86 18 4.0 7.0 0.00 0.00 0.00 67 1012.9
20260904193853 85 350 4.0 5.0 0.00 0.00 0.00 70 1012.7
20260904193348 85 354 2.0 5.0 0.00 0.00 0.00 69 1012.8
20260904192843 85 188 1.0 2.0 0.00 0.00 0.00 69 1012.8
20260904192339 83 176 2.0 3.0 0.00 0.00 0.00 72 1012.8
20260904191835 83 350 3.0 3.0 0.00 0.00 0.00 74 1012.9
20260904191332 84 344 3.0 5.0 0.00 0.00 0.00 72 1013.1
20260904190828 84 334 4.0 7.0 0.00 0.00 0.00 72 1013.1
20260904190324 85 184 4.0 5.0 0.00 0.00 0.00 71 1013.3
20260904185820 84 23 3.0 3.0 0.00 0.00 0.00 72 1013.2
20260904185315 84 263 5.0 7.0 0.00 0.00 0.00 72 1013.1
20260904184814 83 315 3.0 3.0 0.00 0.00 0.00 73 1013.1
20260904184309 82 296 2.0 3.0 0.00 0.00 0.00 75 1012.9
20260904183805 83 335 5.0 9.0 0.00 0.00 0.00 75 1013.1
20260904183300 82 82 2.0 3.0 0.00 0.00 0.00 75 1012.9
20260904182755 82 354 4.0 5.0 0.00 0.00 0.00 75 1013.1
20260904182250 82 236 2.0 2.0 0.00 0.00 0.00 76 1012.9
20260904181746 81 335 3.0 3.0 0.00 0.00 0.00 78 1013.1
20260904181246 81 10 6.0 10.0 0.00 0.00 0.00 78 1013.2
20260904180741 81 343 2.0 3.0 0.00 0.00 0.00 78 1013.2
20260904180236 80 244 3.0 3.0 0.00 0.00 0.00 79 1012.9
20260904175735 81 2 6.0 7.0 0.00 0.00 0.00 78 1013.1
20260904175233 81 294 4.0 5.0 0.00 0.00 0.00 79 1012.8
20260904174729 81 356 4.0 5.0 0.00 0.00 0.00 78 1012.8
20260904174225 82 171 1.0 2.0 0.00 0.00 0.00 78 1012.8
20260904173720 82 32 6.0 9.0 0.00 0.00 0.00 77 1012.9
20260904173215 82 111 2.0 3.0 0.00 0.00 0.00 77 1012.9
20260904172712 84 249 4.0 7.0 0.00 0.00 0.00 75 1012.6
20260904172210 84 18 2.0 3.0 0.00 0.00 0.00 75 1012.5
20260904171706 83 359 3.0 3.0 0.00 0.00 0.00 75 1012.5